Ortonville, MN

9:28 PM CST on February 21, 2017 (GMT -0600)
Ortonville Municipal-Martinson

Weather History for KVVV - September, 2013

Change the Weather History Date:

Wednesday, September 11, 2013

  Actual Average (KAQP) Record (KAQP)
Temperature  
Mean Temperature 73 °F -  
Max Temperature 86 °F 73 °F 89 °F (2005)
Min Temperature 60 °F 50 °F 41 °F (1999)
Cooling Degree Days 8    
Growing Degree Days 23 (Base 50)    
Moisture  
Dew Point 51 °F    
Average Humidity 52    
Maximum Humidity 77    
Minimum Humidity 23    
Precipitation  
Precipitation 0.00 in - - ()
Sea Level Pressure  
Sea Level Pressure 30.07 in    
Wind  
Wind Speed 6 mph (NW)    
Max Wind Speed 16 mph    
Max Gust Speed 25 mph    
Visibility 10 miles    
Events      
Averages and records for this station are not official NWS values.
T = Trace of Precipitation, MM = Missing Value Source: NWS Daily Summary

Daily Weather History Graph

Daily Weather History Graph

Search for Another Location

Airport or City:

Trip Planner

Search our weather history database for the weather conditions in past years. The results will help you decide how hot, cold, wet, or windy it might be!

Date:

Astronomy

Sep. 11, 2013 Rise Set
Actual Time 6:59 AM CDT 7:43 PM CDT
Civil Twilight 6:29 AM CDT 8:13 PM CDT
Nautical Twilight 5:54 AM CDT 8:48 PM CDT
Astronomical Twilight 5:17 AM CDT 9:25 PM CDT
Moon 1:47 PM CDT (9/11) 11:22 PM CDT (9/11)
Length of Visible Light 13h 43m
Length of Day
12h 44m
Waxing Crescent, 39% of the Moon is Illuminated
Sep 11
Waxing Crescent
Sep 12
First Quarter
Sep 19
Full
Sep 26
Last Quarter
Oct 4
New

Hourly Weather History & Observations

Time (CDT) Temp. Dew Point Humidity Pressure Visibility Wind Dir Wind Speed Gust Speed Precip Events Conditions
12:14 AM 64.4 °F 57.2 °F 77% 30.00 in 10.0 mi WSW 3.5 mph - N/A   Clear
12:33 AM 64.4 °F 57.2 °F 77% 30.00 in 10.0 mi SSW 3.5 mph - N/A   Clear
12:54 AM 64.4 °F 57.2 °F 77% 30.00 in 10.0 mi SSW 3.5 mph - N/A   Clear
1:14 AM 64.4 °F 57.2 °F 77% 30.00 in 10.0 mi Calm Calm - N/A   Clear
1:33 AM 64.4 °F 55.4 °F 73% 30.00 in 10.0 mi Calm Calm - N/A   Clear
1:54 AM 62.6 °F 55.4 °F 77% 30.00 in 10.0 mi Calm Calm - N/A   Clear
2:13 AM 64.4 °F 55.4 °F 73% 30.01 in 10.0 mi Calm Calm - N/A   Clear
2:34 AM 66.2 °F 55.4 °F 68% 30.00 in 10.0 mi WNW 5.8 mph - N/A   Clear
2:54 AM 62.6 °F 55.4 °F 77% 30.01 in 10.0 mi WSW 4.6 mph - N/A   Clear
3:13 AM 64.4 °F 55.4 °F 73% 30.01 in 10.0 mi West 5.8 mph - N/A   Clear
3:33 AM 64.4 °F 55.4 °F 73% 30.01 in 10.0 mi West 3.5 mph - N/A   Clear
3:54 AM 64.4 °F 55.4 °F 73% 30.01 in 10.0 mi WSW 3.5 mph - N/A   Clear
4:13 AM 62.6 °F 55.4 °F 77% 30.01 in 10.0 mi WNW 3.5 mph - N/A   Clear
4:34 AM 64.4 °F 55.4 °F 73% 30.01 in 10.0 mi Calm Calm - N/A   Clear
4:54 AM 64.4 °F 55.4 °F 73% 30.02 in 10.0 mi Calm Calm - N/A   Clear
5:13 AM 64.4 °F 55.4 °F 73% 30.02 in 10.0 mi West 9.2 mph - N/A   Clear
5:34 AM 66.2 °F 55.4 °F 68% 30.02 in 10.0 mi West 8.1 mph - N/A   Clear
5:54 AM 64.4 °F 55.4 °F 73% 30.03 in 10.0 mi West 9.2 mph - N/A   Clear
6:13 AM 64.4 °F 55.4 °F 73% 30.04 in 10.0 mi West 8.1 mph - N/A   Clear
6:34 AM 64.4 °F 55.4 °F 73% 30.04 in 10.0 mi West 8.1 mph - N/A   Clear
6:54 AM 62.6 °F 55.4 °F 77% 30.04 in 10.0 mi West 6.9 mph - N/A   Clear
7:13 AM 62.6 °F 55.4 °F 77% 30.05 in 10.0 mi West 6.9 mph - N/A   Clear
7:34 AM 64.4 °F 55.4 °F 73% 30.06 in 10.0 mi WNW 6.9 mph - N/A   Clear
7:53 AM 64.4 °F 55.4 °F 73% 30.06 in 10.0 mi West 4.6 mph - N/A   Clear
8:14 AM 64.4 °F 55.4 °F 73% 30.06 in 10.0 mi West 4.6 mph - N/A   Clear
8:34 AM 66.2 °F 57.2 °F 73% 30.06 in 10.0 mi WNW 5.8 mph - N/A   Clear
8:53 AM 66.2 °F 57.2 °F 73% 30.07 in 10.0 mi NW 4.6 mph - N/A   Clear
9:14 AM 69.8 °F 55.4 °F 60% 30.07 in 10.0 mi NW 5.8 mph - N/A   Clear
9:34 AM 69.8 °F 55.4 °F 60% 30.08 in 10.0 mi NW 8.1 mph - N/A   Clear
9:53 AM 71.6 °F 57.2 °F 60% 30.08 in 10.0 mi NW 9.2 mph - N/A   Clear
10:14 AM 71.6 °F 57.2 °F 60% 30.08 in 10.0 mi NW 5.8 mph - N/A   Clear
10:34 AM 73.4 °F 57.2 °F 57% 30.08 in 10.0 mi NW 6.9 mph - N/A   Clear
10:53 AM 75.2 °F 55.4 °F 50% 30.08 in 10.0 mi NW 5.8 mph - N/A   Clear
11:14 AM 77.0 °F 55.4 °F 47% 30.08 in 10.0 mi WNW 3.5 mph - N/A   Clear
11:34 AM 78.8 °F 55.4 °F 44% 30.08 in 10.0 mi WNW 5.8 mph - N/A   Clear
11:53 AM 78.8 °F 53.6 °F 42% 30.08 in 10.0 mi NNW 5.8 mph - N/A   Clear
12:14 PM 80.6 °F 51.8 °F 37% 30.08 in 10.0 mi West 4.6 mph - N/A   Clear
12:34 PM 80.6 °F 50.0 °F 34% 30.08 in 10.0 mi NNW 4.6 mph - N/A   Clear
12:53 PM 82.4 °F 48.2 °F 30% 30.08 in 10.0 mi West 8.1 mph - N/A   Clear
1:14 PM 82.4 °F 48.2 °F 30% 30.08 in 10.0 mi NW 9.2 mph - N/A   Clear
1:34 PM 84.2 °F 48.2 °F 29% 30.07 in 10.0 mi NW 8.1 mph - N/A   Clear
1:53 PM 84.2 °F 48.2 °F 29% 30.07 in 10.0 mi NNW 9.2 mph - N/A   Clear
2:14 PM 84.2 °F 44.6 °F 25% 30.07 in 10.0 mi WNW 15.0 mph - N/A   Clear
2:34 PM 86.0 °F 44.6 °F 23% 30.06 in 10.0 mi WNW 11.5 mph 20.7 mph N/A   Clear
2:53 PM 84.2 °F 42.8 °F 23% 30.06 in 10.0 mi NNW 13.8 mph 17.3 mph N/A   Clear
3:14 PM 84.2 °F 44.6 °F 25% 30.06 in 10.0 mi NW 13.8 mph 18.4 mph N/A   Clear
3:34 PM 84.2 °F 42.8 °F 23% 30.06 in 10.0 mi NW 10.4 mph 21.9 mph N/A   Clear
3:53 PM 84.2 °F 44.6 °F 25% 30.05 in 10.0 mi WNW 10.4 mph 18.4 mph N/A   Clear
4:14 PM 84.2 °F 44.6 °F 25% 30.06 in 10.0 mi WNW 15.0 mph 23.0 mph N/A   Clear
4:33 PM 84.2 °F 48.2 °F 29% 30.06 in 10.0 mi WNW 15.0 mph 20.7 mph N/A   Clear
4:54 PM 84.2 °F 48.2 °F 29% 30.05 in 10.0 mi NW 16.1 mph - N/A   Scattered Clouds
5:14 PM 84.2 °F 46.4 °F 27% 30.05 in 10.0 mi NW 9.2 mph 20.7 mph N/A   Clear
5:33 PM 84.2 °F 46.4 °F 27% 30.06 in 10.0 mi NW 15.0 mph 25.3 mph N/A   Clear
5:54 PM 82.4 °F 46.4 °F 28% 30.07 in 10.0 mi NW 15.0 mph 20.7 mph N/A   Clear
6:14 PM 80.6 °F 44.6 °F 28% 30.07 in 10.0 mi NNW 9.2 mph 20.7 mph N/A   Clear
6:33 PM 80.6 °F 41.0 °F 24% 30.07 in 10.0 mi NNW 15.0 mph 24.2 mph N/A   Clear
6:54 PM 78.8 °F 42.8 °F 28% 30.07 in 10.0 mi North 15.0 mph - N/A   Clear
7:13 PM 75.2 °F 42.8 °F 31% 30.08 in 10.0 mi North 10.4 mph - N/A   Clear
7:34 PM 73.4 °F 44.6 °F 36% 30.08 in 10.0 mi NNW 9.2 mph - N/A   Clear
7:54 PM 71.6 °F 44.6 °F 38% 30.10 in 10.0 mi NNW 8.1 mph - N/A   Clear
8:13 PM 69.8 °F 46.4 °F 43% 30.11 in 10.0 mi North 6.9 mph - N/A   Clear
8:34 PM 68.0 °F 46.4 °F 46% 30.12 in 10.0 mi NNW 6.9 mph - N/A   Clear
8:54 PM 68.0 °F 46.4 °F 46% 30.13 in 10.0 mi North 10.4 mph - N/A   Clear
9:13 PM 66.2 °F 44.6 °F 46% 30.14 in 10.0 mi North 10.4 mph - N/A   Clear
9:34 PM 66.2 °F 44.6 °F 46% 30.15 in 10.0 mi North 9.2 mph - N/A   Clear
9:53 PM 64.4 °F 44.6 °F 49% 30.15 in 10.0 mi NNW 6.9 mph - N/A   Clear
10:14 PM 64.4 °F 44.6 °F 49% 30.15 in 10.0 mi NNW 8.1 mph - N/A   Clear
10:33 PM 62.6 °F 46.4 °F 55% 30.15 in 10.0 mi NNW 6.9 mph - N/A   Clear
10:54 PM 62.6 °F 46.4 °F 55% 30.16 in 10.0 mi NNW 6.9 mph - N/A   Clear
11:14 PM 60.8 °F 46.4 °F 59% 30.16 in 10.0 mi NNW 5.8 mph - N/A   Clear
11:33 PM 60.8 °F 46.4 °F 59% 30.17 in 10.0 mi NNW 6.9 mph - N/A   Clear
11:54 PM 60.8 °F 48.2 °F 63% 30.17 in 10.0 mi NNW 5.8 mph - N/A   Clear